Find Tan Ce 2

NORAD ID: 28382 Int'l Des: 2004-029 Owner: CASC Country: CN operational
MEOELLIPTICALPOLARHEO_ELLIPTICAL

Live-Position

3D-Globus wird geladen...

Über Tan Ce 2

Beschreibung wird geladen...

Nächste Überflüge

Passes for default location (London). Set your location on the main map for personalized predictions.

Höhenverlauf

Loading altitude history...

Zweizeiliger Elementsatz

1 28382U 04029A 26106.94593256 .00011736 00000-0 31339-2 0 9995
2 28382 87.9026 237.8009 7018587 133.6288 311.6144 2.61456460179071
Epoch: 16. Apr. 2026 • Age: 4 hours

Aktueller Status

Höhe 29229.4 km
Geschwindigkeit 2.12 km/s
Subsatellitenpunkt -59.93°S, 18.78°W
Startdatum 25. Juli 2004
Alter 21.7 years
Typ other

Technische Details

Klassifizierung Payload
Masse 343.00 kg
Trockenmasse 343.00 kg
Gesamtmasse 343.00 kg
Länge 2.10 m
Durchmesser 1.40 m
Spannweite 10.00 m
Form Cyl + 2 Ant
Hersteller DFH
Bus-Typ CAST-968
Phasenstatus In Orbit
Besitzer/Staat CASC/CN

Most Searched